When you browse on this site, cookies collect data to enhance your experience and personalize the content and advertising you see.
Visit our Privacy Policy to learn more. By continuing to use the site, you agree to this use of cookies and data.
  • In Slovakia
  • List of Countries
  • For 7 days
  • Water Temperature
  • Satellite Maps
  • Weather Map
  • Weather Widgets
  • user-avatar
    Login

    Hourly Weather Neuquén

    Today, 26 May, Sunday

    Time Temperature Precipitation Wind Pressure Humidity
    00:00 +14°C° 0 mm 4 mps 730 mmHg 25%
    01:00 +14°C° 0 mm 5 mps 731 mmHg 28%
    02:00 +14°C° 0 mm 5 mps 731 mmHg 29%
    03:00 +14°C° 0 mm 5 mps 731 mmHg 30%
    04:00 +13°C° 0 mm 5 mps 731 mmHg 31%
    05:00 +13°C° 0 mm 4 mps 731 mmHg 32%
    06:00 +13°C° 0 mm 3 mps 732 mmHg 34%
    07:00 +13°C° 0 mm 2 mps 732 mmHg 35%
    08:00 +13°C° 0 mm 3 mps 733 mmHg 36%
    09:00 +14°C° 0 mm 3 mps 733 mmHg 36%
    10:00 +16°C° 0 mm 3 mps 734 mmHg 37%
    11:00 +16°C° 0 mm 2 mps 733 mmHg 36%
    12:00 +16°C° 0 mm 2 mps 733 mmHg 34%
    13:00 +18°C° 0 mm 1 mps 733 mmHg 33%
    14:00 +18°C° 0 mm 1 mps 733 mmHg 34%
    15:00 +16°C° 0 mm 1 mps 733 mmHg 34%
    16:00 +16°C° 0 mm 1 mps 733 mmHg 35%
    17:00 +16°C° 0 mm 1 mps 733 mmHg 37%
    18:00 +15°C° 0 mm 2 mps 733 mmHg 39%
    19:00 +14°C° 0 mm 2 mps 733 mmHg 41%
    20:00 +13°C° 0 mm 3 mps 733 mmHg 44%
    21:00 +12°C° 0 mm 3 mps 734 mmHg 47%
    22:00 +12°C° 0 mm 4 mps 734 mmHg 50%
    23:00 +12°C° 0 mm 3 mps 734 mmHg 51%

    Tomorrow, 27 May, Monday

    Time Temperature Precipitation Wind Pressure Humidity
    00:00 +11°C° 0 mm 3 mps 733 mmHg 52%
    01:00 +11°C° 0 mm 3 mps 733 mmHg 53%
    02:00 +10°C° 0 mm 3 mps 733 mmHg 53%
    03:00 +10°C° 0 mm 3 mps 733 mmHg 53%
    04:00 +10°C° 0 mm 3 mps 732 mmHg 53%
    05:00 +9°C° 0 mm 3 mps 733 mmHg 54%
    06:00 +9°C° 0 mm 3 mps 733 mmHg 55%
    07:00 +9°C° 0 mm 3 mps 733 mmHg 55%
    08:00 +11°C° 0 mm 3 mps 733 mmHg 50%
    09:00 +12°C° 0 mm 3 mps 733 mmHg 44%
    10:00 +14°C° 0 mm 4 mps 733 mmHg 38%
    11:00 +15°C° 0 mm 4 mps 732 mmHg 36%
    12:00 +15°C° 0 mm 4 mps 732 mmHg 33%
    13:00 +17°C° 0 mm 4 mps 731 mmHg 30%
    14:00 +15°C° 0 mm 4 mps 731 mmHg 32%
    15:00 +15°C° 0 mm 4 mps 731 mmHg 33%
    16:00 +14°C° 0 mm 3 mps 731 mmHg 35%
    17:00 +15°C° 0 mm 2 mps 731 mmHg 37%
    18:00 +14°C° 0 mm 2 mps 731 mmHg 40%
    19:00 +14°C° 0 mm 1 mps 731 mmHg 42%
    20:00 +13°C° 0.1 mm 2 mps 732 mmHg 44%
    21:00 +13°C° 0.1 mm 2 mps 732 mmHg 46%
    22:00 +12°C° 0.1 mm 2 mps 732 mmHg 48%
    23:00 +12°C° 0.1 mm 2 mps 732 mmHg 49%

    Day after tomorrow, 28 May, Tuesday

    Time Temperature Precipitation Wind Pressure Humidity
    00:00 +10°C° 0.1 mm 2 mps 733 mmHg 51%
    01:00 +10°C° 0.1 mm 2 mps 733 mmHg 53%
    02:00 +10°C° 0.1 mm 2 mps 733 mmHg 53%
    03:00 +10°C° 0.1 mm 2 mps 733 mmHg 54%
    04:00 +10°C° 0.1 mm 2 mps 733 mmHg 55%
    05:00 +9°C° 0.2 mm 2 mps 733 mmHg 59%
    06:00 +9°C° 0.2 mm 2 mps 734 mmHg 62%
    07:00 +8°C° 0.2 mm 2 mps 734 mmHg 66%
    08:00 +8°C° 0.6 mm 2 mps 734 mmHg 66%
    09:00 +9°C° 0.6 mm 2 mps 735 mmHg 65%
    10:00 +9°C° 0.6 mm 2 mps 735 mmHg 65%
    11:00 +9°C° 0.4 mm 2 mps 735 mmHg 63%
    12:00 +9°C° 0.4 mm 2 mps 734 mmHg 61%
    13:00 +10°C° 0.4 mm 2 mps 734 mmHg 59%
    14:00 +10°C° 0.1 mm 2 mps 734 mmHg 59%
    15:00 +10°C° 0.1 mm 2 mps 734 mmHg 58%
    16:00 +10°C° 0.1 mm 2 mps 735 mmHg 58%
    17:00 +9°C° 0.2 mm 2 mps 735 mmHg 61%
    18:00 +9°C° 0.2 mm 2 mps 735 mmHg 64%
    19:00 +8°C° 0.2 mm 2 mps 736 mmHg 67%
    20:00 +8°C° 0.2 mm 3 mps 736 mmHg 68%
    21:00 +8°C° 0.2 mm 3 mps 737 mmHg 69%
    22:00 +8°C° 0.2 mm 3 mps 737 mmHg 71%
    23:00 +7°C° 0.1 mm 4 mps 737 mmHg 72%

    29 May, Wednesday

    Time Temperature Precipitation Wind Pressure Humidity
    00:00 +7°C° 0.1 mm 4 mps 737 mmHg 74%
    01:00 +6°C° 0.1 mm 5 mps 737 mmHg 76%
    02:00 +6°C° 0 mm 5 mps 737 mmHg 75%
    03:00 +6°C° 0 mm 5 mps 737 mmHg 73%
    04:00 +6°C° 0 mm 5 mps 737 mmHg 71%
    05:00 +6°C° 0 mm 5 mps 737 mmHg 70%
    06:00 +5°C° 0 mm 6 mps 737 mmHg 69%
    07:00 +5°C° 0 mm 6 mps 738 mmHg 67%
    08:00 +5°C° 0.4 mm 6 mps 738 mmHg 68%
    09:00 +5°C° 0.4 mm 6 mps 738 mmHg 68%
    10:00 +5°C° 0.4 mm 6 mps 738 mmHg 69%
    11:00 +5°C° 0.8 mm 7 mps 738 mmHg 69%
    12:00 +5°C° 0.8 mm 7 mps 738 mmHg 70%
    13:00 +5°C° 0.8 mm 7 mps 737 mmHg 70%
    14:00 +5°C° 0.4 mm 7 mps 737 mmHg 71%
    15:00 +5°C° 0.4 mm 7 mps 737 mmHg 71%
    16:00 +5°C° 0.4 mm 7 mps 737 mmHg 72%
    17:00 +5°C° 0.2 mm 7 mps 738 mmHg 72%
    18:00 +5°C° 0.2 mm 7 mps 738 mmHg 73%
    19:00 +5°C° 0.2 mm 7 mps 738 mmHg 73%
    20:00 +5°C° 0.1 mm 7 mps 738 mmHg 73%
    21:00 +5°C° 0.1 mm 7 mps 739 mmHg 73%
    22:00 +5°C° 0.1 mm 7 mps 739 mmHg 72%
    23:00 +5°C° 0.3 mm 7 mps 739 mmHg 73%

    30 May, Thursday

    Time Temperature Precipitation Wind Pressure Humidity
    00:00 +5°C° 0.3 mm 7 mps 738 mmHg 73%
    01:00 +5°C° 0.3 mm 7 mps 738 mmHg 73%
    02:00 +5°C° 0.2 mm 7 mps 738 mmHg 74%
    03:00 +4°C° 0.2 mm 7 mps 738 mmHg 76%
    04:00 +4°C° 0.2 mm 7 mps 738 mmHg 77%
    05:00 +4°C° 0.4 mm 7 mps 738 mmHg 79%
    06:00 +4°C° 0.4 mm 8 mps 738 mmHg 81%
    07:00 +4°C° 0.4 mm 8 mps 737 mmHg 82%
    08:00 +4°C° 0.9 mm 7 mps 737 mmHg 83%
    09:00 +4°C° 0.9 mm 7 mps 738 mmHg 83%
    10:00 +5°C° 0.9 mm 6 mps 738 mmHg 84%
    11:00 +5°C° 0.4 mm 6 mps 737 mmHg 82%
    12:00 +5°C° 0.4 mm 6 mps 736 mmHg 81%
    13:00 +7°C° 0.4 mm 6 mps 736 mmHg 80%
    14:00 +7°C° 0.1 mm 6 mps 735 mmHg 82%
    15:00 +7°C° 0.1 mm 6 mps 735 mmHg 83%
    16:00 +7°C° 0.1 mm 6 mps 735 mmHg 84%
    17:00 +7°C° 0.2 mm 5 mps 735 mmHg 85%
    18:00 +7°C° 0.2 mm 5 mps 735 mmHg 86%
    19:00 +7°C° 0.2 mm 4 mps 734 mmHg 87%
    20:00 +7°C° 0.2 mm 4 mps 734 mmHg 88%
    21:00 +7°C° 0.2 mm 4 mps 734 mmHg 88%
    22:00 +7°C° 0.2 mm 4 mps 733 mmHg 88%
    23:00 +7°C° 0.1 mm 4 mps 733 mmHg 89%

    31 May, Friday

    Time Temperature Precipitation Wind Pressure Humidity
    00:00 +8°C° 0.1 mm 3 mps 732 mmHg 89%
    01:00 +8°C° 0.1 mm 3 mps 732 mmHg 90%
    02:00 +8°C° 0.1 mm 2 mps 731 mmHg 90%
    03:00 +8°C° 0.1 mm 2 mps 731 mmHg 90%
    04:00 +9°C° 0.1 mm 1 mps 730 mmHg 90%
    05:00 +9°C° 0.1 mm 1 mps 730 mmHg 91%
    06:00 +8°C° 0.1 mm 2 mps 730 mmHg 91%
    07:00 +8°C° 0.1 mm 2 mps 730 mmHg 92%
    08:00 +9°C° 0 mm 2 mps 730 mmHg 88%
    09:00 +10°C° 0 mm 3 mps 730 mmHg 84%
    10:00 +11°C° 0 mm 3 mps 730 mmHg 80%
    11:00 +12°C° 0 mm 3 mps 729 mmHg 74%
    12:00 +13°C° 0 mm 3 mps 729 mmHg 68%
    13:00 +13°C° 0 mm 3 mps 728 mmHg 63%
    14:00 +13°C° 0 mm 3 mps 728 mmHg 62%
    15:00 +14°C° 0 mm 2 mps 728 mmHg 61%
    16:00 +14°C° 0 mm 2 mps 728 mmHg 61%
    17:00 +14°C° 0 mm 1 mps 729 mmHg 63%
    18:00 +13°C° 0 mm 1 mps 729 mmHg 66%
    19:00 +11°C° 0 mm 0 mps 730 mmHg 68%
    20:00 +12°C° 0 mm 1 mps 730 mmHg 67%
    21:00 +12°C° 0 mm 1 mps 731 mmHg 66%
    22:00 +12°C° 0 mm 1 mps 732 mmHg 65%
    23:00 +10°C° 0.1 mm 4 mps 732 mmHg 68%
    Show more